Terminal Aerodrome Forecast
Issued by NWS Boston, MA

Home | Current Version | Previous Version | Text Only | Print | Product List | Glossary On
Versions: 1 2 3 4 5 6 7 8 9 10 11 12 13 14 15 16 17 18 19 20 21 22 23 24 25 26 27 28 29 30 31 32 33 34 35 36 37 38 39 40 41 42 43 44
000
FTUS41 KBOX 291737
TAFPVD
TAF
KPVD 291737Z 2918/3018 14009KT P6SM SCT150
     FM300100 13008KT P6SM VCSH BKN100
     FM300500 10004KT P6SM BKN110
     FM300700 03005KT P6SM BKN140
     FM301600 11005KT P6SM FEW200=

USA.gov is the U.S. government's official web portal to all federal, state and local government web resources and services.